Temp
-7 -7 -6 -6 -6 -6 -7 -7 -7 -7 -7 -7 -7 -7 -7 -7 -7 -7 -7 -6 -6 -6 -6 -6 -6 -6 -6 -6 -6 -6 -6 -7 -7 -7 -6 -7 -7 -7 -7 -6 -6 -6 -6 -6 -6 -6 -7 -6 -6 -6 -6 -6 -6 -6 -6 -6 -6 -6 -6 -6 -6 -6 -6
-7 -7 -6 -6 -6 -6 -6 -7 -7 -7 -7 -7 -7 -7 -7 -7 -7 -7 -7 -7 -6 -6 -6 -6 -6 -6 -6 -6 -6 -6 -6 -7 -7 -7 -6 -7 -7 -7 -7 -7 -6 -6 -6 -6 -6 -6 -6 -6 -6 -6 -6 -6 -6 -6 -6 -6 -6 -6 -6 -6 -6 -6 -6
-7 -7 -7 -6 -6 -6 -6 -6 -6 -6 -6 -7 -7 -7 -7 -7 -7 -7 -7 -7 -7 -6 -6 -6 -6 -6 -5 -6 -6 -6 -6 -6 -7 -7 -7 -7 -7 -7 -7 -7 -6 -6 -6 -6 -6 -6 -6 -6 -6 -6 -6 -6 -6 -6 -6 -6 -6 -6 -6 -6 -6 -6 -6
-7 -7 -7 -7 -7 -7 -7 -7 -7 -7 -6 -6 -7 -7 -7 -7 -7 -7 -7 -7 -7 -6 -6 -6 -6 -6 -5 -6 -6 -6 -6 -6 -7 -7 -7 -6 -7 -7 -7 -7 -7 -7 -6 -6 -6 -6 -6 -6 -6 -6 -6 -6 -6 -6 -6 -6 -6 -6 -6 -6 -6 -6 -6
-7 -7 -7 -8 -7 -7 -7 -7 -7 -7 -7 -7 -6 -6 -6 -6 -6 -6 -7 -7 -7 -7 -6 -6 -6 -6 -6 -6 -6 -6 -6 -6 -7 -7 -6 -6 -6 -7 -7 -7 -7 -7 -6 -6 -6 -6 -6 -6 -6 -6 -6 -6 -6 -6 -6 -6 -6 -6 -6 -6 -6 -6 -6
-8 -8 -8 -8 -8 -7 -7 -7 -7 -7 -7 -7 -6 -7 -6 -6 -6 -6 -7 -7 -7 -7 -6 -6 -6 -6 -6 -6 -6 -6 -6 -6 -6 -6 -6 -6 -6 -7 -7 -7 -7 -7 -6 -6 -6 -6 -6 -6 -6 -6 -6 -6 -6 -6 -6 -6 -6 -6 -6 -6 -6 -6 -6
-8 -8 -8 -8 -8 -8 -8 -8 -8 -7 -7 -7 -7 -7 -7 -6 -6 -6 -6 -6 -7 -7 -6 -6 -6 -6 -6 -6 -6 -6 -6 -6 -6 -6 -6 -6 -6 -7 -7 -7 -6 -6 -6 -6 -6 -6 -6 -6 -6 -6 -6 -6 -6 -6 -6 -6 -6 -6 -6 -6 -6 -6 -6
-8 -8 -8 -8 -8 -8 -8 -8 -8 -8 -7 -7 -7 -7 -7 -6 -6 -6 -6 -6 -6 -6 -7 -7 -7 -7 -6 -6 -6 -6 -6 -6 -6 -6 -6 -6 -6 -6 -6 -6 -6 -6 -6 -6 -6 -6 -6 -6 -6 -6 -6 -6 -6 -6 -6 -6 -6 -6 -6 -6 -6 -6 -6
-8 -8 -8 -8 -8 -8 -8 -8 -8 -8 -8 -7 -7 -7 -7 -7 -6 -6 -6 -5 -6 -6 -6 -6 -7 -7 -7 -6 -6 -6 -6 -6 -6 -6 -6 -6 -6 -6 -6 -6 -6 -6 -6 -6 -6 -6 -6 -6 -6 -6 -6 -6 -6 -6 -6 -6 -6 -6 -6 -6 -6 -6 -6
-8 -8 -8 -8 -8 -8 -9 -8 -8 -8 -8 -8 -7 -7 -7 -7 -7 -7 -6 -6 -6 -6 -6 -6 -7 -7 -7 -6 -6 -6 -6 -6 -6 -6 -6 -6 -6 -6 -6 -6 -6 -6 -6 -6 -6 -6 -6 -5 -5 -6 -6 -6 -6 -6 -6 -6 -6 -6 -6 -6 -6 -6 -6
-8 -8 -8 -8 -8 -8 -9 -9 -8 -8 -8 -8 -8 -7 -7 -7 -7 -7 -7 -7 -6 -6 -6 -7 -7 -7 -6 -6 -6 -6 -6 -6 -6 -6 -6 -6 -6 -6 -6 -6 -6 -6 -6 -6 -6 -6 -5 -5 -5 -5 -5 -6 -6 -6 -6 -6 -6 -6 -6 -6 -6 -6 -6
-8 -8 -8 -8 -8 -8 -8 -8 -8 -8 -8 -8 -8 -8 -7 -7 -7 -7 -7 -7 -7 -6 -6 -6 -6 -6 -6 -6 -6 -6 -6 -6 -6 -6 -6 -6 -6 -6 -6 -6 -6 -6 -6 -6 -6 -6 -5 -5 -5 -5 -5 -5 -5 -5 -6 -6 -6 -6 -6 -6 -6 -6 -6
-8 -8 -8 -8 -8 -8 -8 -8 -8 -8 -8 -8 -8 -8 -8 -8 -8 -7 -7 -7 -7 -7 -7 -6 -6 -6 -6 -6 -6 -6 -6 -5 -5 -6 -6 -6 -6 -6 -6 -6 -6 -6 -6 -6 -6 -6 -5 -5 -5 -5 -5 -5 -5 -5 -5 -5 -6 -6 -6 -6 -6 -6 -6
-8 -8 -8 -8 -8 -8 -8 -8 -8 -8 -8 -8 -8 -8 -8 -8 -8 -7 -7 -7 -7 -7 -7 -7 -6 -6 -6 -6 -5 -5 -5 -5 -5 -5 -5 -6 -6 -6 -6 -6 -6 -6 -6 -6 -6 -6 -5 -5 -5 -5 -5 -5 -5 -5 -5 -5 -5 -5 -5 -6 -6 -6 -6
-8 -8 -8 -8 -8 -8 -8 -8 -8 -8 -8 -8 -8 -8 -8 -8 -8 -8 -7 -7 -7 -7 -7 -7 -7 -7 -6 -6 -6 -5 -5 -5 -5 -5 -5 -5 -5 -5 -5 -5 -6 -6 -6 -6 -6 -6 -6 -5 -5 -5 -5 -5 -5 -5 -5 -5 -5 -5 -5 -5 -5 -6 -6
-8 -8 -8 -8 -8 -8 -8 -8 -8 -8 -8 -8 -8 -8 -8 -8 -8 -8 -8 -7 -7 -7 -7 -7 -7 -7 -7 -6 -6 -6 -6 -6 -5 -5 -5 -5 -5 -5 -5 -5 -5 -5 -6 -6 -6 -6 -5 -5 -5 -5 -5 -5 -5 -5 -5 -5 -5 -5 -5 -5 -5 -5 -6
-8 -8 -8 -8 -8 -8 -8 -8 -8 -8 -8 -8 -8 -8 -8 -8 -8 -8 -8 -7 -7 -7 -7 -7 -7 -7 -7 -7 -7 -6 -6 -6 -6 -6 -6 -5 -5 -5 -5 -5 -5 -5 -5 -5 -6 -5 -5 -5 -5 -5 -5 -5 -5 -5 -5 -5 -5 -5 -5 -5 -5 -5 -5
-8 -8 -8 -8 -8 -8 -8 -8 -8 -8 -8 -8 -8 -8 -8 -8 -8 -8 -8 -8 -7 -7 -7 -7 -7 -7 -7 -7 -7 -7 -6 -6 -6 -6 -6 -6 -5 -5 -5 -5 -5 -5 -5 -5 -5 -5 -5 -5 -5 -5 -5 -5 -5 -5 -5 -5 -5 -5 -5 -5 -5 -5 -5
-8 -8 -8 -8 -8 -8 -8 -8 -8 -8 -8 -8 -8 -8 -8 -8 -8 -8 -8 -8 -8 -7 -7 -7 -7 -7 -8 -8 -7 -7 -7 -6 -6 -6 -6 -6 -6 -5 -5 -5 -5 -5 -5 -5 -5 -5 -5 -5 -5 -5 -5 -5 -5 -5 -5 -5 -5 -5 -5 -5 -5 -5 -5
-9 -8 -8 -8 -8 -8 -8 -8 -8 -8 -8 -8 -8 -8 -8 -8 -8 -8 -8 -8 -8 -7 -7 -7 -7 -7 -7 -8 -8 -7 -7 -7 -6 -6 -6 -6 -6 -5 -5 -5 -5 -5 -5 -5 -5 -5 -5 -5 -5 -5 -5 -5 -5 -5 -5 -5 -5 -5 -5 -5 -5 -5 -5
-9 -9 -8 -8 -8 -9 -9 -9 -9 -9 -8 -8 -8 -8 -8 -8 -8 -8 -8 -8 -8 -8 -7 -7 -7 -7 -7 -8 -8 -8 -7 -7 -7 -6 -6 -6 -5 -5 -5 -5 -5 -5 -5 -5 -5 -5 -5 -5 -5 -5 -5 -5 -5 -5 -5 -5 -5 -5 -5 -5 -5 -5 -4
-10 -9 -9 -8 -9 -9 -9 -9 -9 -9 -8 -8 -8 -8 -9 -8 -8 -8 -8 -8 -8 -8 -8 -7 -7 -7 -7 -8 -8 -8 -7 -7 -7 -7 -7 -6 -6 -5 -5 -5 -5 -5 -5 -5 -5 -5 -5 -5 -5 -5 -5 -5 -5 -5 -5 -5 -5 -5 -5 -5 -5 -5 -4
-10 -10 -9 -9 -9 -9 -9 -9 -9 -9 -9 -9 -8 -8 -9 -9 -8 -8 -8 -8 -8 -8 -8 -8 -7 -7 -7 -8 -8 -8 -8 -7 -7 -7 -7 -7 -6 -6 -6 -6 -5 -5 -5 -5 -5 -5 -5 -5 -5 -5 -5 -5 -5 -5 -5 -5 -5 -5 -5 -5 -5 -4 -4
-11 -10 -10 -10 -9 -9 -9 -9 -9 -9 -9 -9 -9 -9 -9 -9 -9 -9 -8 -8 -8 -8 -8 -8 -8 -8 -8 -8 -7 -8 -8 -7 -7 -7 -7 -7 -7 -7 -6 -6 -6 -6 -5 -5 -5 -5 -5 -5 -5 -5 -5 -5 -5 -5 -5 -5 -5 -5 -5 -5 -5 -4 -4
-11 -11 -10 -10 -10 -10 -9 -9 -9 -9 -9 -9 -9 -9 -9 -9 -9 -9 -9 -9 -8 -8 -8 -8 -8 -8 -8 -8 -8 -8 -8 -8 -7 -7 -7 -7 -7 -7 -7 -6 -6 -6 -5 -5 -5 -5 -5 -5 -5 -5 -5 -5 -5 -5 -5 -5 -5 -5 -5 -5 -5 -5 -5
-12 -11 -11 -10 -10 -10 -10 -10 -9 -9 -9 -9 -9 -9 -9 -9 -9 -9 -9 -9 -9 -9 -8 -8 -9 -9 -8 -8 -8 -8 -8 -7 -7 -7 -7 -7 -7 -7 -7 -6 -6 -6 -6 -5 -5 -5 -5 -5 -5 -5 -5 -5 -5 -5 -5 -5 -5 -5 -5 -5 -5 -5 -5
-12 -12 -11 -11 -10 -10 -10 -10 -10 -10 -9 -9 -9 -9 -9 -9 -9 -9 -9 -9 -9 -9 -9 -8 -8 -9 -9 -8 -8 -8 -8 -7 -7 -7 -7 -7 -7 -7 -6 -6 -6 -6 -6 -6 -6 -6 -5 -5 -5 -5 -5 -5 -5 -5 -5 -5 -6 -6 -6 -5 -5 -5 -5
-12 -12 -12 -11 -11 -10 -10 -10 -10 -10 -10 -10 -9 -9 -9 -9 -9 -9 -9 -9 -9 -9 -9 -9 -9 -8 -8 -8 -8 -8 -8 -7 -7 -7 -7 -7 -7 -7 -6 -6 -6 -6 -6 -6 -6 -6 -6 -6 -5 -5 -5 -5 -5 -5 -5 -6 -6 -6 -6 -6 -6 -5 -5
-13 -12 -12 -11 -11 -11 -10 -10 -10 -10 -10 -10 -10 -10 -9 -9 -9 -9 -9 -9 -9 -9 -9 -9 -9 -9 -9 -8 -8 -8 -8 -8 -7 -7 -7 -7 -7 -7 -7 -7 -7 -7 -7 -7 -6 -6 -6 -6 -6 -5 -5 -5 -5 -5 -5 -6 -6 -6 -6 -6 -6 -6 -5
-13 -13 -12 -12 -12 -11 -11 -10 -10 -10 -10 -10 -10 -10 -10 -10 -9 -9 -9 -9 -9 -9 -9 -9 -9 -9 -9 -9 -8 -8 -8 -8 -8 -7 -8 -8 -7 -7 -7 -7 -7 -7 -7 -7 -7 -7 -6 -6 -6 -6 -6 -6 -5 -6 -6 -6 -6 -6 -6 -6 -6 -6 -6
-13 -13 -13 -12 -12 -12 -11 -11 -10 -10 -10 -10 -10 -10 -10 -10 -10 -10 -9 -9 -9 -9 -9 -9 -9 -9 -9 -9 -8 -8 -8 -8 -8 -7 -8 -8 -7 -7 -8 -8 -7 -7 -7 -7 -7 -7 -6 -6 -6 -6 -6 -6 -6 -6 -6 -6 -6 -6 -6 -6 -6 -6 -6
-13 -13 -13 -13 -12 -12 -11 -11 -11 -10 -10 -10 -10 -10 -10 -10 -10 -10 -10 -10 -10 -9 -9 -9 -9 -9 -9 -9 -9 -8 -8 -9 -8 -8 -8 -8 -8 -8 -8 -8 -7 -7 -7 -7 -7 -7 -7 -7 -6 -6 -6 -6 -6 -6 -6 -6 -6 -6 -6 -6 -6 -6 -6
-13 -13 -13 -13 -13 -12 -12 -11 -11 -11 -11 -10 -10 -10 -10 -10 -9 -10 -10 -10 -10 -10 -9 -9 -9 -9 -9 -9 -9 -9 -9 -9 -9 -8 -8 -8 -8 -8 -8 -8 -7 -7 -7 -7 -7 -7 -7 -7 -7 -7 -6 -6 -6 -6 -6 -6 -6 -6 -7 -6 -6 -6 -7
-14 -13 -13 -13 -13 -13 -12 -12 -11 -11 -11 -11 -10 -10 -10 -10 -10 -10 -10 -10 -10 -10 -10 -9 -9 -9 -9 -9 -9 -9 -9 -9 -9 -9 -8 -8 -8 -8 -8 -8 -8 -7 -7 -7 -7 -7 -7 -7 -7 -7 -7 -7 -7 -7 -6 -6 -6 -7 -7 -7 -7 -7 -7
-14 -14 -13 -13 -13 -13 -13 -12 -12 -12 -11 -11 -11 -11 -10 -10 -10 -10 -10 -10 -10 -10 -10 -10 -10 -9 -9 -9 -9 -9 -9 -9 -9 -9 -9 -8 -8 -8 -8 -8 -8 -8 -7 -7 -7 -7 -7 -7 -7 -7 -7 -7 -7 -7 -6 -6 -7 -7 -8 -7 -7 -7 -7
-14 -14 -14 -13 -13 -13 -13 -12 -12 -12 -12 -11 -11 -11 -11 -10 -10 -10 -10 -10 -10 -10 -10 -11 -11 -10 -10 -10 -9 -9 -9 -9 -9 -9 -9 -8 -8 -8 -8 -8 -8 -8 -8 -8 -8 -7 -7 -7 -7 -7 -7 -7 -7 -7 -7 -7 -7 -8 -8 -7 -7 -7 -7
-15 -15 -14 -14 -13 -13 -13 -13 -12 -12 -12 -12 -12 -11 -11 -11 -10 -10 -10 -10 -10 -10 -10 -10 -11 -11 -11 -10 -10 -9 -9 -9 -9 -8 -8 -8 -8 -8 -8 -8 -8 -8 -8 -8 -8 -8 -8 -7 -7 -8 -8 -8 -7 -7 -7 -7 -7 -8 -8 -7 -7 -7 -7
-16 -16 -15 -15 -14 -13 -13 -13 -13 -12 -12 -12 -12 -12 -11 -11 -11 -10 -10 -10 -10 -10 -10 -10 -11 -11 -11 -11 -10 -10 -10 -9 -9 -8 -8 -8 -8 -8 -8 -8 -8 -8 -8 -8 -8 -8 -8 -8 -8 -8 -8 -8 -8 -8 -8 -8 -8 -8 -8 -8 -8 -8 -8
Height
5899 5900 5901 5902 5902 5903 5904 5905 5907 5908 5909 5911 5912 5914 5916 5918 5920 5921 5922 5923 5924 5925 5926 5928 5929 5931 5932 5934 5936 5938 5939 5941 5941 5942 5942 5943 5944 5946 5947 5948 5949 5951 5952 5954 5956 5957 5958 5959 5960 5960 5960 5960 5961 5961 5961 5962 5962 5963 5964 5965 5965 5965 5965
5900 5901 5902 5903 5904 5904 5904 5905 5906 5907 5908 5909 5910 5912 5914 5916 5918 5919 5920 5922 5923 5924 5926 5927 5928 5929 5931 5933 5935 5937 5938 5939 5940 5941 5942 5942 5943 5945 5946 5948 5949 5950 5952 5954 5955 5957 5958 5959 5960 5960 5960 5960 5960 5961 5961 5962 5962 5963 5964 5964 5965 5965 5965
5900 5901 5902 5903 5904 5904 5905 5906 5906 5907 5908 5909 5910 5911 5912 5914 5915 5917 5918 5920 5922 5923 5925 5926 5927 5928 5930 5932 5934 5935 5937 5938 5939 5940 5941 5942 5943 5944 5946 5947 5948 5950 5951 5953 5954 5956 5957 5958 5959 5960 5960 5960 5960 5960 5961 5961 5962 5963 5964 5964 5965 5965 5965
5899 5900 5901 5902 5902 5903 5904 5905 5906 5906 5906 5907 5908 5909 5909 5911 5912 5914 5916 5917 5919 5922 5923 5924 5926 5927 5929 5931 5932 5934 5936 5937 5938 5939 5940 5941 5942 5943 5945 5946 5948 5949 5950 5951 5953 5955 5956 5957 5958 5959 5960 5960 5960 5960 5961 5961 5962 5962 5963 5964 5965 5965 5965
5897 5898 5899 5900 5901 5902 5902 5904 5904 5904 5904 5905 5905 5906 5907 5908 5910 5912 5913 5915 5917 5919 5921 5922 5924 5926 5928 5929 5931 5933 5934 5935 5936 5937 5939 5940 5941 5943 5944 5945 5947 5948 5949 5950 5952 5953 5955 5956 5958 5959 5959 5960 5960 5960 5960 5961 5961 5962 5963 5964 5964 5965 5965
5894 5895 5897 5898 5899 5900 5900 5902 5902 5903 5903 5904 5904 5904 5905 5906 5907 5909 5910 5912 5914 5916 5918 5920 5922 5924 5926 5928 5929 5931 5932 5934 5935 5936 5937 5939 5940 5941 5942 5944 5945 5947 5948 5949 5951 5952 5954 5955 5957 5958 5959 5960 5960 5960 5960 5960 5961 5961 5962 5963 5964 5964 5965
5891 5893 5894 5896 5897 5898 5899 5900 5901 5901 5903 5904 5904 5905 5905 5905 5905 5906 5907 5909 5911 5912 5914 5917 5919 5922 5924 5926 5928 5929 5931 5932 5933 5934 5936 5937 5939 5940 5941 5943 5944 5946 5947 5948 5950 5951 5952 5954 5955 5957 5958 5959 5960 5960 5960 5960 5960 5961 5961 5962 5963 5964 5965
5888 5890 5891 5893 5894 5896 5897 5898 5899 5900 5902 5903 5904 5904 5905 5905 5905 5905 5905 5907 5909 5910 5911 5912 5915 5917 5920 5922 5925 5927 5928 5930 5932 5933 5934 5936 5937 5938 5940 5941 5942 5944 5946 5947 5948 5949 5951 5952 5954 5956 5957 5958 5959 5960 5960 5960 5960 5960 5961 5961 5962 5963 5964
5884 5886 5888 5890 5892 5893 5895 5896 5898 5899 5900 5901 5902 5903 5904 5904 5904 5904 5905 5906 5908 5909 5909 5910 5911 5913 5915 5918 5921 5923 5925 5927 5929 5931 5933 5934 5936 5937 5938 5939 5940 5942 5944 5945 5947 5948 5950 5951 5952 5954 5956 5957 5958 5959 5959 5959 5960 5960 5960 5961 5962 5962 5963
5881 5883 5885 5887 5889 5891 5892 5894 5895 5896 5898 5899 5900 5901 5902 5903 5904 5905 5907 5909 5910 5910 5910 5910 5911 5912 5912 5914 5916 5919 5922 5924 5926 5929 5931 5932 5934 5935 5936 5937 5938 5940 5942 5943 5945 5947 5948 5950 5951 5952 5954 5955 5957 5958 5958 5959 5959 5959 5960 5960 5961 5962 5963
5878 5880 5882 5884 5886 5887 5889 5891 5892 5894 5895 5896 5897 5899 5900 5901 5903 5904 5907 5910 5911 5912 5912 5912 5912 5913 5913 5914 5914 5916 5919 5921 5924 5926 5928 5930 5931 5932 5933 5935 5936 5938 5940 5942 5943 5945 5947 5948 5950 5951 5952 5954 5955 5956 5957 5958 5958 5959 5960 5960 5961 5961 5962
5874 5876 5878 5880 5882 5884 5886 5888 5889 5891 5892 5893 5894 5896 5898 5899 5900 5902 5904 5906 5907 5909 5911 5911 5911 5912 5913 5914 5915 5916 5917 5919 5921 5924 5925 5927 5928 5930 5931 5933 5934 5936 5937 5939 5941 5943 5945 5947 5948 5950 5951 5952 5953 5954 5955 5956 5957 5958 5959 5960 5961 5961 5962
5870 5872 5874 5876 5878 5880 5882 5884 5886 5887 5889 5890 5891 5893 5895 5896 5898 5900 5902 5903 5904 5906 5908 5908 5909 5910 5911 5912 5914 5915 5916 5918 5920 5921 5922 5924 5925 5927 5929 5930 5932 5934 5935 5937 5938 5940 5942 5944 5946 5948 5949 5950 5951 5952 5954 5955 5956 5957 5958 5959 5960 5961 5962
5865 5868 5870 5872 5874 5876 5878 5880 5882 5884 5885 5887 5888 5889 5891 5894 5895 5897 5899 5900 5902 5904 5905 5906 5907 5908 5909 5910 5912 5914 5915 5916 5917 5918 5920 5921 5922 5924 5927 5928 5930 5931 5933 5934 5936 5938 5940 5941 5943 5945 5946 5948 5949 5951 5952 5953 5955 5955 5956 5958 5959 5960 5961
5861 5863 5865 5868 5870 5872 5874 5876 5878 5880 5881 5883 5885 5886 5888 5890 5892 5894 5896 5897 5900 5901 5903 5904 5905 5906 5907 5909 5911 5912 5913 5914 5915 5916 5917 5919 5920 5923 5924 5926 5928 5929 5930 5932 5934 5935 5937 5938 5940 5942 5944 5946 5947 5948 5950 5952 5953 5954 5955 5956 5957 5958 5959
5856 5858 5861 5863 5865 5867 5869 5871 5873 5875 5877 5879 5881 5883 5884 5887 5889 5891 5892 5894 5896 5899 5900 5902 5903 5904 5905 5907 5908 5909 5910 5912 5913 5914 5915 5917 5919 5920 5922 5924 5925 5927 5928 5930 5932 5933 5934 5936 5938 5940 5942 5943 5945 5946 5948 5949 5951 5952 5953 5954 5956 5957 5958
5851 5853 5855 5858 5860 5862 5865 5867 5869 5871 5874 5876 5877 5879 5881 5883 5885 5888 5889 5891 5893 5895 5897 5899 5900 5902 5903 5905 5905 5906 5907 5909 5911 5912 5914 5915 5916 5918 5920 5921 5923 5925 5927 5928 5930 5931 5933 5934 5936 5938 5939 5941 5942 5944 5946 5947 5948 5949 5950 5952 5953 5954 5956
5845 5848 5850 5853 5855 5858 5860 5862 5865 5867 5869 5871 5873 5875 5877 5879 5881 5884 5886 5888 5889 5891 5893 5895 5897 5899 5901 5902 5902 5903 5904 5906 5907 5909 5911 5913 5914 5915 5917 5919 5920 5923 5925 5927 5928 5929 5931 5933 5934 5936 5937 5939 5940 5942 5944 5945 5945 5946 5948 5949 5950 5952 5953
5841 5843 5845 5848 5850 5853 5855 5857 5860 5862 5865 5867 5869 5871 5873 5875 5877 5879 5882 5884 5886 5887 5889 5891 5894 5896 5898 5899 5899 5900 5901 5903 5904 5906 5908 5910 5911 5912 5914 5916 5918 5920 5922 5924 5925 5927 5929 5931 5932 5934 5935 5936 5938 5939 5941 5942 5942 5943 5945 5946 5947 5948 5950
5836 5838 5840 5843 5845 5848 5850 5853 5855 5858 5860 5862 5865 5867 5869 5871 5873 5875 5877 5880 5882 5884 5886 5888 5890 5892 5894 5895 5896 5897 5898 5899 5901 5903 5905 5906 5907 5909 5911 5913 5915 5917 5919 5921 5922 5924 5926 5928 5930 5931 5932 5934 5935 5937 5938 5939 5940 5941 5942 5943 5944 5946 5947
5831 5833 5835 5837 5840 5843 5845 5848 5851 5853 5855 5858 5860 5862 5864 5866 5869 5870 5873 5875 5878 5880 5883 5885 5887 5889 5891 5892 5893 5894 5895 5896 5898 5900 5902 5903 5904 5906 5908 5910 5912 5914 5916 5917 5919 5921 5923 5925 5926 5928 5930 5931 5933 5934 5936 5937 5938 5938 5939 5941 5942 5942 5944
5825 5828 5830 5832 5835 5837 5840 5843 5846 5848 5850 5853 5855 5857 5859 5861 5864 5866 5868 5871 5874 5876 5879 5881 5883 5885 5887 5888 5890 5891 5892 5893 5895 5897 5898 5900 5901 5903 5905 5907 5909 5911 5912 5914 5916 5918 5920 5922 5924 5926 5927 5928 5930 5931 5934 5935 5935 5936 5937 5938 5939 5939 5941
5818 5821 5824 5827 5829 5832 5835 5838 5840 5843 5846 5848 5850 5852 5854 5856 5859 5861 5864 5867 5869 5872 5874 5876 5878 5880 5882 5884 5886 5888 5889 5890 5892 5893 5895 5896 5898 5900 5902 5903 5905 5906 5908 5910 5913 5915 5917 5919 5920 5922 5923 5925 5927 5929 5931 5932 5933 5933 5935 5936 5936 5937 5939
5812 5815 5817 5820 5823 5826 5829 5832 5835 5837 5840 5843 5845 5847 5849 5851 5854 5856 5859 5861 5865 5867 5870 5872 5874 5876 5878 5880 5882 5884 5885 5887 5888 5890 5891 5893 5894 5896 5898 5899 5900 5902 5903 5906 5908 5910 5913 5914 5916 5918 5920 5922 5924 5926 5928 5929 5929 5930 5931 5933 5933 5935 5936
5805 5808 5811 5814 5816 5819 5823 5826 5829 5832 5834 5837 5839 5842 5844 5846 5848 5851 5853 5856 5859 5862 5865 5867 5870 5872 5873 5875 5878 5880 5882 5883 5885 5887 5888 5889 5890 5892 5893 5895 5896 5897 5899 5901 5903 5905 5908 5910 5912 5914 5916 5919 5921 5922 5924 5925 5926 5926 5928 5929 5930 5931 5933
5798 5801 5804 5806 5809 5812 5816 5819 5822 5825 5828 5831 5833 5836 5838 5841 5843 5845 5848 5850 5853 5856 5859 5863 5865 5867 5869 5871 5873 5875 5877 5879 5881 5883 5884 5884 5885 5887 5888 5890 5891 5893 5894 5896 5898 5900 5903 5905 5907 5910 5912 5915 5917 5918 5920 5922 5922 5922 5923 5924 5926 5927 5929
5790 5793 5796 5799 5802 5805 5808 5811 5815 5818 5821 5824 5827 5830 5832 5835 5837 5840 5842 5845 5847 5850 5853 5857 5860 5862 5865 5867 5869 5871 5872 5874 5876 5877 5879 5879 5879 5881 5882 5884 5886 5888 5890 5892 5894 5896 5898 5900 5903 5905 5908 5910 5912 5914 5916 5917 5918 5918 5918 5920 5921 5923 5925
5782 5785 5788 5791 5794 5797 5800 5804 5807 5810 5813 5816 5819 5822 5825 5828 5831 5834 5836 5839 5841 5844 5847 5851 5854 5857 5859 5862 5864 5866 5867 5868 5870 5872 5873 5872 5873 5875 5878 5880 5883 5886 5888 5889 5891 5893 5895 5897 5899 5901 5903 5905 5907 5909 5911 5913 5913 5913 5914 5915 5917 5919 5920
5774 5776 5779 5782 5785 5788 5792 5796 5799 5802 5805 5808 5811 5814 5818 5821 5824 5827 5830 5833 5835 5838 5841 5844 5848 5851 5853 5856 5858 5860 5862 5863 5864 5866 5867 5868 5871 5875 5878 5880 5883 5885 5885 5887 5889 5890 5892 5894 5895 5897 5899 5901 5903 5905 5907 5908 5908 5909 5910 5911 5913 5914 5916
5766 5768 5771 5774 5777 5779 5783 5787 5791 5794 5797 5799 5802 5805 5809 5813 5817 5820 5823 5826 5828 5831 5835 5838 5841 5844 5847 5849 5852 5854 5856 5857 5858 5860 5863 5865 5869 5874 5876 5877 5880 5881 5882 5884 5886 5887 5889 5891 5892 5894 5896 5898 5899 5901 5903 5904 5904 5905 5906 5907 5909 5910 5911
5758 5760 5763 5765 5768 5770 5774 5778 5782 5786 5788 5791 5794 5797 5800 5804 5808 5812 5816 5818 5821 5824 5828 5831 5834 5837 5840 5843 5845 5847 5850 5851 5853 5855 5858 5861 5865 5869 5871 5872 5874 5876 5878 5880 5882 5884 5886 5887 5889 5890 5892 5894 5896 5897 5898 5899 5900 5901 5902 5903 5905 5906 5907
5749 5751 5754 5757 5760 5762 5765 5769 5774 5778 5780 5783 5785 5788 5792 5795 5799 5804 5807 5810 5813 5817 5820 5824 5827 5830 5833 5836 5839 5841 5843 5845 5847 5850 5854 5857 5859 5863 5866 5867 5869 5871 5873 5875 5878 5880 5882 5884 5885 5887 5889 5891 5893 5894 5894 5895 5896 5897 5898 5899 5900 5902 5902
5740 5742 5745 5749 5751 5753 5756 5760 5765 5769 5772 5775 5777 5780 5784 5787 5790 5794 5799 5802 5805 5809 5812 5816 5820 5823 5826 5829 5832 5834 5836 5838 5841 5844 5848 5851 5854 5857 5860 5862 5864 5866 5868 5871 5873 5875 5877 5879 5881 5883 5885 5887 5889 5890 5890 5891 5892 5893 5894 5895 5896 5897 5897
5731 5733 5736 5739 5742 5745 5747 5750 5755 5760 5764 5767 5769 5771 5775 5780 5782 5785 5790 5794 5797 5801 5804 5808 5812 5815 5818 5821 5824 5827 5829 5831 5834 5838 5841 5845 5848 5851 5854 5857 5858 5860 5863 5866 5868 5870 5872 5874 5876 5878 5880 5882 5884 5885 5886 5887 5888 5890 5891 5891 5892 5892 5892
5720 5723 5726 5729 5732 5735 5738 5741 5745 5749 5754 5759 5761 5762 5766 5771 5775 5777 5780 5785 5789 5793 5796 5800 5803 5807 5810 5813 5816 5820 5823 5825 5828 5831 5835 5838 5842 5845 5848 5851 5853 5855 5857 5860 5863 5865 5866 5868 5871 5874 5876 5877 5878 5880 5882 5883 5885 5886 5886 5886 5886 5886 5888
5710 5713 5715 5718 5721 5725 5728 5731 5734 5738 5743 5749 5751 5753 5757 5762 5766 5769 5772 5775 5779 5784 5788 5792 5796 5799 5802 5806 5809 5812 5816 5819 5822 5824 5828 5831 5835 5838 5842 5845 5847 5849 5852 5855 5857 5859 5861 5863 5866 5869 5870 5871 5874 5876 5878 5880 5881 5881 5880 5881 5882 5883 5884
5699 5702 5704 5706 5710 5714 5717 5720 5723 5728 5733 5737 5741 5744 5747 5752 5757 5761 5764 5766 5769 5774 5779 5784 5789 5792 5795 5798 5802 5805 5808 5812 5815 5818 5821 5825 5828 5832 5835 5838 5841 5843 5846 5849 5851 5853 5855 5858 5861 5863 5864 5867 5870 5872 5873 5876 5877 5876 5876 5878 5879 5879 5880
5690 5692 5694 5695 5698 5702 5705 5709 5713 5717 5722 5726 5731 5734 5738 5742 5747 5751 5755 5757 5760 5764 5769 5775 5781 5786 5789 5791 5794 5797 5800 5805 5808 5811 5814 5818 5821 5824 5828 5832 5835 5838 5841 5843 5845 5847 5850 5852 5855 5857 5859 5862 5865 5867 5868 5871 5872 5872 5872 5873 5874 5875 5876
Wind_Speed
30 29 28 26 25 23 23 23 23 24 23 22 21 19 18 17 16 16 17 18 18 18 20 22 23 23 23 21 19 16 15 15 15 15 14 13 13 13 14 15 15 13 11 10 10 11 11 12 12 12 13 13 13 13 12 12 12 12 12 11 10 9 9
30 27 26 25 23 22 22 23 24 24 24 24 23 21 20 19 18 17 17 19 20 20 20 22 24 25 24 23 20 18 16 17 17 16 14 14 14 14 15 16 16 14 12 10 11 12 13 12 12 13 13 13 13 13 13 13 13 13 13 12 11 10 10
27 23 23 23 22 21 21 22 23 23 23 24 23 22 21 20 20 19 19 19 21 21 21 22 24 25 25 23 21 20 18 18 18 18 16 15 15 15 15 16 16 15 13 13 13 14 13 13 13 13 13 14 14 14 14 14 14 13 13 12 12 11 11
25 21 20 22 23 22 20 21 24 25 24 25 25 24 24 23 22 21 20 20 21 22 23 23 24 25 25 24 23 22 20 20 21 20 18 16 16 16 15 16 16 16 16 16 15 15 14 13 13 14 14 14 14 14 14 14 14 14 13 13 12 11 11
27 23 21 21 22 23 22 22 25 27 27 26 27 27 26 25 24 23 21 20 21 23 25 25 25 25 26 26 25 23 22 22 22 22 19 17 16 16 16 16 17 18 18 18 17 16 15 14 14 15 15 15 14 15 15 14 14 14 14 13 12 12 12
30 26 23 21 22 24 24 23 26 29 29 28 28 28 27 26 25 25 23 22 21 23 25 26 26 25 26 26 26 25 24 24 24 23 21 19 18 17 17 17 18 19 19 19 18 17 16 15 15 16 15 15 15 15 15 15 15 14 15 14 13 13 12
32 29 26 23 23 24 25 25 27 30 30 29 29 28 28 27 27 27 26 24 23 23 25 27 27 26 27 27 27 26 25 25 25 25 23 21 20 19 19 18 18 19 20 20 19 18 17 17 17 16 16 15 15 15 15 15 15 15 15 15 14 14 13
33 31 29 26 26 25 26 26 28 30 31 30 30 29 29 29 29 28 28 26 25 24 25 28 29 29 29 29 28 27 27 27 26 25 24 23 22 21 20 19 19 20 20 20 20 20 19 18 18 17 17 16 15 15 15 16 16 16 16 16 15 14 13
33 33 31 30 29 28 28 28 28 30 31 31 31 30 30 30 30 29 29 28 27 26 26 27 29 31 32 31 30 30 29 29 27 26 25 24 23 23 22 22 21 20 21 21 22 21 20 19 19 18 17 16 15 15 15 16 17 17 17 16 16 15 14
33 33 33 32 31 31 31 31 31 31 32 32 31 31 31 31 31 30 28 26 26 26 26 27 27 30 33 33 33 32 32 30 29 28 27 26 25 25 25 24 23 22 21 22 22 21 21 20 19 19 18 16 15 15 15 16 17 18 17 17 16 15 14
33 34 34 33 33 34 35 34 34 33 33 33 32 32 32 31 31 31 28 25 24 24 24 25 25 26 30 33 34 34 33 32 31 29 29 28 27 27 27 26 25 24 23 22 22 22 22 21 20 20 19 18 16 15 15 16 18 18 18 18 17 16 15
34 35 35 34 34 35 37 37 37 36 35 35 35 33 33 32 32 32 30 28 28 27 26 27 27 25 27 31 34 34 34 33 32 31 31 30 30 29 29 28 27 26 25 24 24 23 23 22 21 21 20 19 17 16 15 16 17 19 19 18 17 17 16
37 37 37 36 36 37 38 39 40 39 38 37 37 35 34 33 33 33 31 30 30 30 29 29 29 28 26 28 32 35 35 34 33 33 33 33 32 32 31 30 29 28 27 26 26 25 24 24 23 23 22 21 19 17 15 15 16 18 19 18 18 18 17
39 39 39 38 38 39 40 41 42 42 41 40 39 37 36 34 34 34 34 33 32 31 30 30 30 30 28 27 30 34 36 36 36 35 35 35 34 33 32 31 31 30 29 28 27 26 26 26 25 25 25 23 21 19 17 15 14 16 18 19 19 19 18
40 40 40 40 41 41 43 44 45 45 45 43 41 40 38 36 35 36 36 35 34 33 33 32 32 32 30 27 27 30 35 38 38 37 37 36 35 34 33 33 32 32 32 30 29 28 28 28 27 27 26 25 24 21 19 16 15 15 17 18 20 20 20
41 41 41 41 42 44 45 46 47 48 47 46 44 42 40 39 37 37 37 37 37 35 34 34 34 33 32 29 27 28 31 35 38 39 38 37 37 36 35 34 34 33 33 32 31 31 30 29 29 28 28 27 26 24 21 19 18 17 17 18 20 21 21
41 42 42 41 42 44 46 47 48 49 49 49 47 45 43 41 40 38 38 38 39 38 36 35 35 34 33 31 29 29 29 31 34 38 39 39 38 38 37 36 35 35 34 33 33 32 31 30 29 29 28 28 28 26 24 22 21 20 19 19 20 21 22
42 42 43 42 42 43 45 47 49 51 51 50 49 47 45 44 42 41 39 39 40 40 39 37 36 36 35 34 32 31 30 29 31 34 37 39 40 39 39 38 37 36 35 34 33 33 32 31 30 30 29 29 29 28 26 25 24 24 22 22 22 22 23
44 43 44 44 43 44 46 47 49 51 52 51 50 49 48 46 45 43 42 41 41 41 41 40 38 37 37 36 35 33 32 31 30 31 34 37 40 41 41 40 39 38 37 36 35 35 34 32 31 31 30 30 30 29 28 28 27 27 26 25 24 24 24
46 45 45 45 45 46 47 48 49 50 51 51 51 51 51 49 48 46 45 43 42 42 42 42 41 39 39 38 38 37 35 34 32 31 31 34 37 41 42 41 40 39 39 38 37 36 35 34 33 32 32 31 31 30 30 30 30 29 29 28 27 26 26
47 47 47 48 47 48 49 50 50 50 50 50 50 51 52 52 51 49 47 46 44 43 43 43 43 42 41 40 40 40 39 36 34 32 31 32 34 37 40 41 41 41 41 40 39 38 37 36 35 34 33 33 32 31 31 30 30 31 30 30 29 29 28
48 49 50 50 50 50 51 52 51 51 50 50 49 50 52 53 53 52 50 48 46 45 44 45 45 44 44 43 42 42 41 39 37 34 33 32 32 32 35 37 40 41 42 42 41 40 39 38 36 35 35 34 33 32 31 31 31 32 32 31 31 31 30
49 51 53 54 54 53 53 54 53 53 52 51 51 51 51 52 53 53 53 51 49 47 46 46 46 46 46 45 45 44 43 42 40 37 36 34 32 31 32 33 36 39 41 42 42 41 40 39 38 38 37 36 35 33 32 32 32 33 33 33 33 32 31
52 53 55 56 57 56 56 56 55 55 54 53 53 53 52 52 53 53 54 53 52 50 49 48 47 47 47 47 47 46 45 44 42 40 39 37 35 33 32 33 34 36 39 41 42 42 42 41 41 40 39 38 36 34 33 33 34 34 34 33 34 33 32
55 55 56 58 59 59 59 58 57 57 57 56 56 55 55 54 54 53 53 54 53 53 51 50 49 48 48 48 48 47 46 45 44 43 42 40 39 37 35 34 35 35 36 38 40 42 43 43 42 41 40 38 37 36 35 34 35 35 35 35 35 34 33
58 58 59 60 61 62 61 61 60 59 59 58 58 58 57 57 56 55 54 53 54 54 53 52 51 50 49 48 48 48 47 46 46 45 44 43 42 41 38 37 36 36 36 36 38 39 42 43 42 41 40 38 37 37 36 35 36 37 37 36 36 35 34
61 61 62 63 64 64 64 63 63 62 61 60 60 60 60 59 58 57 56 55 55 54 54 53 53 53 51 49 48 48 48 48 48 48 47 47 46 45 42 40 38 37 37 36 36 37 39 40 41 41 40 39 38 37 36 36 36 37 38 38 38 37 36
63 63 64 65 67 68 68 67 66 65 65 64 63 62 62 62 61 60 59 58 57 56 54 54 54 54 53 52 50 49 49 49 50 50 50 51 51 49 46 43 40 37 36 36 35 35 35 37 38 39 39 39 38 37 36 36 36 38 39 38 38 38 37
65 65 66 67 68 70 71 71 70 69 68 68 67 66 65 65 64 63 62 60 60 58 56 54 54 54 54 54 53 53 53 53 53 52 52 53 52 49 46 44 41 38 37 36 34 34 33 33 34 35 36 36 36 35 35 35 36 37 38 38 37 37 37
66 67 67 68 69 71 73 74 74 73 73 72 71 70 68 68 67 66 66 64 63 61 59 57 55 55 54 54 54 54 54 56 57 55 54 53 51 48 46 45 43 40 39 37 35 34 32 32 32 32 32 32 32 32 32 33 34 36 36 36 36 36 36
67 67 68 69 70 72 74 75 76 76 76 76 75 74 72 71 69 68 68 69 67 65 63 60 59 57 56 55 54 54 54 56 59 59 56 53 50 49 48 47 45 43 41 39 37 35 33 32 31 31 30 29 28 28 28 30 31 32 32 33 33 34 35
68 68 68 69 71 72 74 75 76 78 79 79 78 77 76 75 73 70 70 71 71 69 66 64 62 61 60 58 56 55 55 56 58 60 58 55 51 49 49 49 48 46 44 42 39 37 35 33 33 32 30 28 27 26 27 28 29 29 29 30 30 31 32
71 71 70 69 70 72 74 75 76 78 80 82 82 81 80 79 78 75 72 72 72 72 70 68 66 65 63 61 59 57 56 56 57 58 59 57 53 50 49 50 49 48 47 45 42 40 38 36 35 34 32 30 28 28 28 29 29 29 28 28 29 30 32
75 75 74 73 72 72 74 75 76 77 79 81 84 84 83 82 81 80 77 74 73 73 73 72 69 67 66 64 62 60 59 58 58 57 57 58 57 53 50 50 50 49 48 47 45 43 41 39 38 36 35 33 32 31 31 31 31 29 28 29 30 32 33
77 78 78 77 76 75 75 75 76 76 77 79 82 86 86 85 83 83 81 79 76 74 73 73 72 70 68 67 65 63 61 61 60 58 56 56 57 56 53 52 51 51 50 48 47 46 45 43 41 39 37 37 35 34 34 33 32 31 31 32 34 35 34
73 77 80 81 81 79 78 77 77 77 77 77 80 83 87 87 86 85 84 83 81 78 75 73 73 72 70 68 67 66 64 61 61 60 58 55 55 56 56 55 54 53 52 50 48 48 48 47 45 42 41 40 39 37 36 35 34 34 35 36 37 36 35
65 70 76 81 83 84 83 82 80 79 78 78 78 81 84 87 88 88 88 87 86 83 80 77 74 73 72 70 68 68 66 62 60 62 61 58 55 55 56 57 56 55 54 52 50 50 50 50 49 47 45 44 42 40 40 38 37 37 38 38 38 38 37
60 62 67 74 80 85 87 87 85 84 81 80 79 80 81 84 86 88 90 90 90 88 85 82 78 75 74 73 71 71 69 64 61 62 63 61 59 57 57 58 59 57 55 54 53 52 51 50 50 49 48 47 45 44 43 41 40 41 41 41 41 40 40
Wind_Direction
198 199 200 197 195 191 188 188 188 187 183 179 181 185 183 183 187 192 194 195 196 196 195 195 195 196 200 203 204 204 198 195 200 199 188 183 185 188 192 195 194 195 199 202 201 202 206 209 210 208 202 196 193 191 189 189 186 185 188 188 184 177 170
200 201 204 204 201 199 193 188 187 189 187 184 183 184 184 184 187 190 194 197 198 198 198 198 197 198 200 202 204 205 201 199 204 206 196 188 186 190 196 198 197 196 195 194 196 202 208 212 212 209 202 197 194 192 190 189 187 186 189 190 187 182 175
202 202 206 208 206 205 201 197 193 191 191 191 188 185 186 187 188 191 194 197 199 201 201 201 200 201 202 202 203 205 204 202 206 210 204 195 190 190 195 200 199 197 191 188 193 202 209 213 213 209 202 197 194 192 191 190 189 190 194 194 190 185 179
203 202 206 208 209 208 205 204 203 197 193 195 195 193 192 191 192 194 196 198 199 202 204 203 202 202 204 204 204 204 204 204 207 211 209 201 194 190 194 199 200 196 190 188 193 200 206 212 213 209 204 199 196 194 194 193 192 194 198 198 195 189 184
206 206 207 208 211 212 209 206 207 205 198 196 199 201 200 199 196 195 198 199 199 201 205 207 205 203 204 206 205 204 204 205 208 210 209 203 197 193 194 198 199 197 192 191 195 199 204 210 212 209 204 202 200 198 198 197 197 198 201 203 201 195 190
208 209 210 211 213 215 214 209 208 208 204 200 201 204 206 205 201 197 197 198 199 201 205 209 208 206 205 207 207 205 205 206 209 210 208 204 200 197 196 197 198 197 195 194 197 200 202 207 210 208 205 204 205 203 202 202 201 202 204 206 205 201 197
209 209 210 211 213 217 218 214 210 210 208 206 205 206 209 210 207 203 197 195 198 199 201 206 209 208 207 208 209 208 207 208 210 211 208 205 203 200 199 198 198 199 198 198 199 200 201 204 206 206 205 206 209 208 208 207 205 204 206 207 207 205 201
210 209 209 210 211 216 219 218 215 212 211 211 210 209 211 213 214 211 203 197 199 201 199 201 205 207 208 208 209 209 209 209 211 213 211 207 205 204 201 200 200 200 199 200 201 202 202 202 202 203 204 207 211 213 213 213 211 208 208 208 208 206 203
212 210 209 209 209 212 217 219 217 215 213 213 214 213 213 216 218 218 212 204 201 202 201 201 204 206 207 207 208 208 209 209 210 212 212 210 207 207 205 203 202 201 201 202 203 203 202 201 199 200 202 205 210 215 217 218 216 214 212 211 209 207 204
214 213 211 211 211 210 213 217 218 217 216 215 217 218 218 218 219 220 221 216 208 205 204 204 208 210 209 207 208 209 209 209 209 211 213 212 210 209 209 207 203 201 203 204 204 204 203 201 198 198 199 201 206 212 216 218 219 219 217 214 212 210 207
216 216 214 214 214 212 212 215 218 219 219 219 219 221 222 223 222 221 222 220 216 215 212 210 214 219 216 212 210 210 210 209 209 210 213 215 213 211 211 210 206 203 203 204 205 205 204 201 199 198 198 200 204 208 212 216 219 221 220 218 216 214 212
219 218 218 217 217 215 214 215 217 219 220 221 221 221 222 225 226 224 221 217 215 218 218 217 217 221 223 220 216 214 212 211 210 210 213 216 217 215 212 211 210 207 204 204 204 205 204 202 200 199 201 203 205 207 210 212 215 219 221 220 219 217 216
225 222 221 220 219 218 217 217 217 218 220 222 222 222 222 224 226 226 224 220 218 218 219 220 221 223 225 225 222 219 216 214 212 212 213 216 218 218 216 213 212 211 209 206 205 205 204 203 202 201 203 206 208 209 211 211 213 216 219 220 220 220 220
232 227 225 224 222 221 220 219 218 218 219 221 223 223 223 223 225 227 227 225 222 220 218 220 223 227 229 229 227 223 220 218 216 215 215 216 219 220 219 217 215 214 213 210 208 206 205 204 203 203 205 207 209 211 212 213 215 217 218 219 220 221 222
235 232 229 228 226 224 223 222 219 218 218 220 222 224 224 223 224 226 228 227 225 223 221 220 221 225 229 231 230 228 225 222 220 218 218 218 220 221 222 221 220 218 216 214 212 210 208 207 206 206 207 208 210 211 212 213 216 219 220 221 222 224 225
235 235 233 231 229 227 225 223 222 219 218 220 221 223 225 225 224 225 227 228 226 225 224 223 223 225 227 228 228 229 229 227 226 224 222 221 221 222 223 224 224 222 220 218 216 214 212 210 209 208 208 210 212 213 213 213 216 220 222 223 224 226 228
233 234 234 232 231 229 226 224 224 222 220 220 221 223 224 225 226 226 227 228 228 226 225 225 226 227 228 228 227 227 229 230 229 228 227 225 224 223 224 226 227 226 225 223 221 219 217 215 213 211 211 212 214 215 214 215 219 221 222 223 224 226 228
231 233 233 232 230 229 227 225 225 225 223 222 222 223 224 225 227 227 227 228 229 228 226 226 226 227 229 230 230 229 229 230 230 230 230 229 229 227 226 226 228 229 229 228 227 225 223 221 219 217 215 215 216 217 216 217 221 224 225 225 225 226 226
230 231 232 232 230 228 228 226 225 226 226 225 223 223 224 225 227 228 228 228 229 229 228 227 226 226 228 230 232 232 231 231 231 231 231 231 232 231 229 228 228 229 230 231 230 229 228 226 225 224 222 220 220 220 219 219 222 226 227 228 228 228 228
227 229 230 231 229 227 226 226 226 227 227 227 226 225 225 226 227 229 229 229 230 230 230 229 227 226 226 229 232 234 234 233 232 232 232 233 233 234 233 232 230 230 231 232 232 232 231 230 229 228 227 226 225 224 223 223 225 227 229 231 232 233 232
224 225 227 229 228 225 223 224 226 227 229 229 229 228 227 227 228 229 230 230 230 230 231 230 229 228 227 227 231 235 236 236 234 234 234 235 235 236 236 235 234 233 233 233 233 234 233 233 232 231 232 231 231 230 229 228 230 231 232 234 236 237 238
223 222 223 225 226 224 223 224 226 227 229 231 231 230 230 229 229 230 231 232 231 230 231 231 231 230 229 228 229 233 237 238 237 236 236 237 238 238 238 238 238 237 236 235 235 235 235 236 235 235 235 235 234 234 234 234 235 236 237 238 239 241 242
224 222 222 223 224 224 224 224 225 227 229 230 232 232 232 231 231 231 232 232 232 231 230 230 231 231 230 229 229 232 235 238 239 238 238 238 239 239 240 240 239 239 238 238 237 237 237 237 237 237 237 237 237 237 238 239 240 241 242 243 244 245 246
227 224 223 223 223 224 225 225 225 226 228 230 232 233 234 233 233 233 233 233 233 232 231 231 231 232 231 231 231 231 234 236 238 239 239 239 239 239 240 240 240 239 239 239 238 238 238 237 238 239 239 239 240 240 240 241 243 245 246 246 248 249 250
230 227 225 224 223 224 225 226 226 227 228 229 231 233 234 234 234 234 234 234 234 233 233 232 232 233 233 232 232 233 234 236 238 240 240 240 240 239 239 240 241 240 240 239 238 238 238 238 238 239 240 241 242 243 242 243 245 247 248 249 250 251 252
232 230 227 225 224 224 224 226 227 228 229 229 230 232 233 234 234 235 235 236 235 235 234 233 233 233 233 234 234 235 235 236 237 239 240 241 241 240 239 239 240 240 240 240 239 239 238 238 239 239 240 241 242 243 244 245 247 249 250 251 252 253 253
233 231 229 227 225 224 224 225 227 228 229 230 230 231 231 232 234 235 236 236 237 236 235 234 234 233 233 234 235 236 236 236 236 237 238 240 240 239 238 237 237 238 240 240 240 240 240 239 239 238 239 240 241 242 243 244 246 249 251 252 253 255 255
236 234 231 229 227 225 224 225 226 228 229 230 231 231 231 231 233 235 236 237 237 237 237 236 235 234 234 234 235 237 237 237 236 236 236 238 238 236 236 236 236 238 240 241 241 241 241 241 240 239 239 239 239 240 242 244 246 248 250 252 253 255 256
239 237 234 232 230 228 225 224 225 227 228 230 230 231 232 232 232 234 235 237 237 238 238 237 235 235 235 234 235 237 238 238 238 237 237 239 239 238 238 239 239 240 241 242 243 242 242 241 241 240 238 238 239 240 241 243 246 248 250 252 254 256 257
241 240 238 235 233 231 228 225 225 225 227 229 230 230 231 232 233 234 235 236 237 238 238 238 237 235 235 235 235 236 239 239 239 238 238 239 240 240 241 240 240 240 241 241 241 241 241 240 240 239 238 237 238 239 240 243 246 249 251 253 255 256 258
243 242 241 239 236 234 231 228 226 225 226 227 229 229 230 231 232 234 235 236 237 237 238 238 237 237 236 236 237 238 239 240 240 239 239 239 239 239 240 241 240 239 239 239 239 239 239 240 240 239 237 236 237 238 240 243 246 249 252 254 255 256 258
246 244 242 241 239 238 235 231 228 226 226 226 228 229 229 230 232 233 234 236 237 237 237 237 238 238 238 238 239 240 241 241 240 239 238 238 239 239 239 241 241 239 238 237 238 238 238 239 240 240 239 238 238 240 242 245 248 250 253 255 256 257 258
247 246 244 242 241 240 238 235 232 229 227 227 227 228 228 230 231 232 233 235 236 237 238 238 237 238 238 238 238 240 242 242 242 240 238 237 238 238 238 239 240 240 238 237 237 237 238 239 240 242 242 241 240 241 243 246 249 251 254 257 258 259 259
247 247 246 245 243 241 240 239 236 233 230 229 229 228 227 228 230 232 232 233 234 236 238 239 239 238 238 238 238 239 241 243 243 242 240 237 236 237 237 238 239 240 239 237 235 235 237 239 240 241 243 243 242 242 244 246 249 253 256 257 258 258 258
247 247 247 246 245 243 242 240 239 237 234 232 231 230 229 228 229 231 232 232 233 235 237 239 240 240 239 239 239 239 240 241 243 243 241 238 236 236 236 237 239 240 240 239 236 234 236 238 240 241 243 243 244 244 245 247 250 252 254 254 255 256 258
247 247 246 246 246 245 244 242 240 239 237 235 233 232 231 229 229 229 231 232 232 233 235 237 239 241 241 240 240 240 240 240 241 242 241 238 235 235 235 236 238 240 241 241 239 237 236 237 239 240 242 244 245 246 247 248 250 251 253 254 256 258 260
249 248 247 246 246 245 245 244 242 240 239 237 236 234 233 232 231 230 231 232 233 233 233 235 236 239 241 242 241 241 241 241 240 239 239 238 235 234 234 233 234 237 239 240 241 240 239 238 238 239 241 243 245 246 248 249 251 252 254 256 257 258 260
251 250 249 247 246 245 244 244 244 243 240 239 238 237 235 233 232 232 232 233 234 234 233 234 234 236 239 242 243 243 242 241 240 238 237 237 237 236 234 233 233 235 237 239 240 241 241 240 239 239 240 241 243 244 246 248 250 252 253 255 257 258 259